sat.trackr.live / text

‹ back to catalog

STARLINK-36736

NORAD 67911 · 2026-036H

PAYLOAD ACTIVE UNKNOWN

§ Identity

Operator
Country
US
Launch date
2026-02-22
Launch site
AFETR
Launch vehicle
Mass (kg)
RCS (m²)

Purposes: comms

External: N2YO · Heavens-Above · Gunter

§ Orbital elements

Epoch: 2026-09-19T15:19:08.512608Z

Period
94.27 min
Inclination
43.0016°
Eccentricity
0.0000893
Mean motion
15.27589774 rev/d
Perigee alt
482.4 km
Apogee alt
483.6 km
Semi-major
6,861.2 km
B*
2.9517e-4
RAAN
229.9775°
Arg perigee
317.0159°
Mean anomaly
43.0623°
Rev number
3,338

§ Raw data

STARLINK-367361 67911U 26036H   26262.63829297  .00007871  00000+0  29517-3 0  99942 67911  43.0016 229.9775 0000893 317.0159  43.0623 15.27589774 33387

JSON: /api/v1/satellites/67911 · /tle

For live sub-satellite position, see the globe view (requires WebGL).

§ Visibility from observer

Set your observer location to see the next 7 days of passes ≥ 10°. The values pass through the URL so the page stays shareable.

No JS? Fill the form by hand. The geolocation button needs JavaScript.